Location: Newark
(44.3248°N, 23.7839°E)
Time: 23:53:28
(UTC+00:00)

PCSat - Pass Details

Date: 16 April 2024
Orbit: 783 x 792 km, 67.1° (Epoch: 21 May)

Event Time Altitude Azimuth Distance (km) Brightness Sun altitude
Rises 02:24:59 0° 335° (NNW) 3,299 12.8 -13.1°
Reaches altitude 10° 02:27:51 10° 348° (NNW) 2,367 12.3 -12.6°
Maximum altitude 02:32:17 25° 43° (NE) 1,564 12.0 -11.9°
Drops below altitude 10° 02:36:42 10° 98° (E) 2,358 12.9 -11.2°
Sets 02:39:32 0° 112° (ESE) 3,284 13.4 -10.8°
